Location: Alpine
(43.1636°N, 111.0180°W)
Time: 05:40:00
(UTC+00:00)

Tiros 1 despin weight - Pass Details

Date: 31 May 2022
Orbit: 591 x 639 km, 48.2° (Epoch: 30 June)

Event Time Altitude Azimuth Distance (km) Brightness Sun altitude
Rises 04:21:05 0° 294° (WNW) 2,857 ? -12.8°
Reaches altitude 10° 04:23:24 10° 296° (WNW) 1,945 ? -13.1°
Maximum altitude 04:27:51 75° 21° (NNE) 619 ? -13.6°
Enters shadow 04:31:05 18° 106° (ESE) 1,468 ? -14.0°
Drops below altitude 10° 04:32:15 10° 108° (ESE) 1,919 - -14.2°
Sets 04:34:32 0° 110° (ESE) 2,815 - -14.4°
